#timestamp,LO_Frequency,Hit,StdDev 
1609585215.7,286047002.3,N
1609585235.5,286047001.9,N
1609585255.4,286047002.1,N
1609585275.2,286046999.9,N
1609585295.1,286047002.5,N
1609585296.0,286047002.5,N
1609585315.8,286047004.3,N
1609585335.6,286047000.4,N
1609585355.5,286046996.9,N
1609585375.3,286046997.8,N
1609585395.2,286046996.7,N
1609585415.9,286046997.8,N
1609585435.7,286046999.3,N
1609585455.6,286046999.5,N
1609585475.4,286046997.0,N
1609585495.2,286046997.8,N
1609585515.1,286046997.2,N
1609585516.0,286046997.2,N
1609585535.8,286046999.2,N
1609585555.7,286046999.0,N
1609585575.5,286047001.1,N
1609585595.3,286047000.4,N
1609585615.2,286047002.3,N
1609585635.0,286047000.3,N
1609585635.9,286047000.3,N
1609585655.8,286047000.7,N
1609585675.6,286046998.3,N
1609585695.4,286046997.0,N
1609585715.3,286046995.4,N
1609585735.1,286046999.6,N
1609585755.8,286047000.5,N
1609585775.7,286047001.2,N
1609585795.5,286047000.8,N
1609585815.4,286047000.2,N
1609585835.2,286047002.5,N
1609585855.0,286047001.4,N
1609585855.9,286047001.4,N
1609585875.8,286047003.8,N
1609585895.6,286047002.3,N
1609585915.4,286047000.0,N
1609585935.3,286047000.3,N
1609585955.1,286046998.6,N
1609585975.9,286046996.9,N
1609585995.7,286046997.7,N
1609586015.5,286046996.7,N
1609586035.4,286046997.0,N
1609586055.2,286046998.3,N
1609586075.1,286046996.7,N
1609586076.0,286046996.7,N
1609586095.8,286046996.9,N
1609586115.6,286046995.3,N
1609586135.5,286046995.0,N
1609586155.3,286046997.7,N
1609586175.1,286046996.9,N
1609586195.9,286046997.6,N
1609586215.7,286046997.8,N
1609586235.6,286046997.9,N
1609586255.4,286046999.1,N
1609586275.2,286046997.9,N
1609586295.1,286046996.1,N
1609586296.0,286046996.1,N
1609586315.8,286046993.6,N
1609586335.7,286046993.9,N
1609586355.5,286046996.4,N
1609586375.3,286046996.3,N
1609586395.2,286046994.2,N
1609586415.0,286046994.3,N
1609586415.9,286046994.3,N
1609586435.8,286046992.2,Y
1609586455.6,286046995.3,P
1609586475.4,286046995.8,P
1609586495.3,286046996.4,P
1609586515.1,286046993.5,Y
1609586535.8,286046998.3,P
1609586555.7,286047000.8,N
1609586575.5,286047000.4,N
1609586595.4,286047002.5,N
1609586615.2,286047002.2,N
1609586635.0,286047001.6,N
1609586635.9,286047001.6,N
1609586655.8,286047002.3,N
1609586675.6,286047000.5,N
1609586695.5,286047000.8,N
1609586715.3,286047000.4,N
1609586735.1,286047002.4,N
1609586755.9,286047002.7,N
1609586775.7,286047004.2,N
1609586795.5,286047003.5,N
1609586815.4,286047003.2,N
1609586835.2,286047001.4,N
1609586855.1,286047001.6,N
1609586856.0,286047001.6,N
1609586875.8,286047001.7,N
1609586895.6,286047003.5,N
1609586915.5,286047003.6,N
1609586935.3,286047001.6,N
1609586955.2,286047004.1,N
1609586975.9,286047001.4,N
1609586995.7,286047005.2,Y
1609587015.6,286047005.5,P
1609587035.4,286047005.9,P
1609587055.3,286047005.2,N
1609587075.1,286047003.7,N
1609587076.0,286047003.7,N
1609587095.8,286047004.2,N
1609587115.7,286047005.8,Y
1609587135.5,286046999.7,P
1609587155.4,286047000.0,N
1609587175.2,286047000.1,N
1609587195.0,286047002.7,N
1609587195.9,286047002.7,N
1609587215.8,286046999.8,N
1609587235.6,286047001.2,N
1609587255.4,286046998.6,N
1609587275.3,286046996.6,N
1609587295.1,286046998.4,N
1609587315.9,286046999.4,N
1609587335.7,286046999.2,N
1609587355.5,286046997.9,N
1609587375.4,286046995.8,N
1609587395.2,286046995.2,N
1609587415.0,286046997.7,N
1609587415.9,286046997.7,N
1609587435.8,286046995.5,N
1609587455.6,286046995.0,N
1609587475.5,286046997.7,N
1609587495.3,286046997.5,N
1609587515.1,286046997.8,N
1609587535.9,286046994.9,N
1609587555.7,286046996.2,N
1609587575.6,286046997.7,N
1609587595.4,286046995.8,N
1609587615.2,286046995.2,N
1609587635.1,286046995.4,N
1609587636.0,286046995.4,N
1609587655.8,286046995.7,N
1609587675.6,286046995.6,N
1609587695.5,286046995.8,N
1609587715.3,286046993.6,N
1609587735.2,286046996.4,N
1609587755.9,286046997.4,N
1609587775.7,286046999.5,N
1609587795.6,286046998.2,N
1609587815.4,286046999.2,N
1609587835.2,286046996.1,N
1609587855.1,286046995.2,Y
1609587856.0,286046995.2,P
1609587875.8,286046998.2,N
1609587895.7,286046999.0,N
1609587915.5,286046997.3,N
1609587935.3,286046997.3,N
1609587955.2,286046995.4,Y
1609587975.0,286046998.6,P
1609587975.9,286046998.6,N
1609587995.8,286046996.6,P
1609588015.6,286046996.7,Y
1609588035.4,286047000.0,P
1609588055.3,286047002.1,N
1609588075.1,286046999.7,N
1609588095.9,286047001.2,N
1609588115.7,286046996.5,N
1609588135.5,286046998.4,N
1609588155.4,286047000.8,N
1609588175.2,286046999.7,N
1609588195.0,286047000.4,N
1609588196.0,286047000.4,N
1609588215.8,286047002.4,N
1609588235.6,286047001.7,N
1609588255.5,286047006.3,Y
1609588275.3,286047009.7,P
1609588295.1,286047008.7,N
1609588315.9,286047006.2,N
1609588335.7,286047010.5,N
1609588355.6,286047009.7,N
1609588375.4,286047010.9,Y
1609588395.2,286047007.0,P
1609588415.1,286047007.6,P
1609588416.0,286047007.6,P
1609588435.8,286047005.9,Y
1609588455.7,286046994.9,P
1609588475.5,286046995.3,N
1609588495.3,286046993.5,N
1609588515.2,286046996.0,N
1609588535.0,286046995.4,N
1609588535.9,286046995.4,N
1609588555.8,286046994.9,N
1609588575.6,286046993.4,N
1609588595.4,286046986.3,Y
1609588615.3,286046997.8,P
1609588635.1,286046997.1,P
1609588655.8,286046995.7,P
1609588675.7,286046992.3,Y
1609588695.5,286046995.1,P
1609588715.4,286046993.4,P
1609588735.2,286046995.9,P
1609588755.0,286046994.5,Y
1609588755.9,286046994.5,P
1609588775.8,286046999.4,N
1609588795.6,286046997.1,N
